When you browse on this site, cookies collect data to enhance your experience and personalize the content and advertising you see.
Visit our Privacy Policy to learn more. By continuing to use the site, you agree to this use of cookies and data.
  • In Hungary
  • List of Countries
  • For 7 days
  • Water Temperature
  • Weather Map
  • News
  • Weather Widgets
  • user-avatar
    Login

    Hourly Weather Yasakovo

    Today, 26 January, Sunday

    Time Temperature Precipitation Wind Pressure Humidity
    00:00 -5°C° 0 mm 6 mps 738 mmHg 81%
    01:00 -5°C° 0 mm 6 mps 738 mmHg 81%
    02:00 -6°C° 0 mm 7 mps 739 mmHg 82%
    03:00 -6°C° 0 mm 7 mps 739 mmHg 83%
    04:00 -6°C° 0 mm 7 mps 740 mmHg 83%
    05:00 -5°C° 0 mm 6 mps 741 mmHg 83%
    06:00 -5°C° 0 mm 6 mps 742 mmHg 83%
    07:00 -5°C° 0 mm 6 mps 742 mmHg 82%
    08:00 -6°C° 0 mm 6 mps 743 mmHg 82%
    09:00 -6°C° 0 mm 5 mps 744 mmHg 84%
    10:00 -6°C° 0 mm 5 mps 745 mmHg 83%
    11:00 -5°C° 0 mm 6 mps 745 mmHg 82%
    12:00 -5°C° 0 mm 6 mps 746 mmHg 80%
    13:00 -5°C° 0 mm 6 mps 746 mmHg 79%
    14:00 -4°C° 0 mm 6 mps 746 mmHg 78%
    15:00 -4°C° 0 mm 6 mps 746 mmHg 77%
    16:00 -5°C° 0 mm 5 mps 746 mmHg 80%
    17:00 -5°C° 0 mm 5 mps 746 mmHg 84%
    18:00 -5°C° 0 mm 4 mps 746 mmHg 87%
    19:00 -5°C° 0 mm 5 mps 746 mmHg 87%
    20:00 -5°C° 0 mm 5 mps 745 mmHg 88%
    21:00 -5°C° 0 mm 6 mps 745 mmHg 88%
    22:00 -4°C° 0.1 mm 6 mps 744 mmHg 88%
    23:00 -4°C° 0.1 mm 7 mps 744 mmHg 89%

    Tomorrow, 27 January, Monday

    Time Temperature Precipitation Wind Pressure Humidity
    00:00 -3°C° 0.1 mm 7 mps 743 mmHg 89%
    01:00 -4°C° 0.2 mm 8 mps 743 mmHg 91%
    02:00 -2°C° 0.2 mm 8 mps 743 mmHg 93%
    03:00 -2°C° 0.2 mm 8 mps 742 mmHg 95%
    04:00 -1°C° 0.1 mm 8 mps 743 mmHg 95%
    05:00 -1°C° 0.1 mm 8 mps 743 mmHg 95%
    06:00 -1°C° 0.1 mm 7 mps 743 mmHg 95%
    07:00 -1°C° 0.1 mm 7 mps 744 mmHg 94%
    08:00 -1°C° 0.1 mm 6 mps 744 mmHg 94%
    09:00 -1°C° 0.1 mm 5 mps 745 mmHg 93%
    10:00 -1°C° 0 mm 4 mps 746 mmHg 89%
    11:00 -2°C° 0 mm 4 mps 747 mmHg 85%
    12:00 -2°C° 0 mm 4 mps 747 mmHg 81%
    13:00 -2°C° 0 mm 3 mps 748 mmHg 79%
    14:00 -2°C° 0 mm 2 mps 748 mmHg 78%
    15:00 -2°C° 0 mm 2 mps 749 mmHg 77%
    16:00 -3°C° 0 mm 2 mps 749 mmHg 78%
    17:00 -4°C° 0 mm 2 mps 750 mmHg 79%
    18:00 -2°C° 0 mm 1 mps 750 mmHg 79%
    19:00 -5°C° 0 mm 2 mps 750 mmHg 79%
    20:00 -5°C° 0 mm 2 mps 751 mmHg 78%
    21:00 -5°C° 0 mm 2 mps 751 mmHg 78%
    22:00 -6°C° 0 mm 3 mps 751 mmHg 78%
    23:00 -6°C° 0 mm 3 mps 751 mmHg 77%

    Day after tomorrow, 28 January, Tuesday

    Time Temperature Precipitation Wind Pressure Humidity
    00:00 -6°C° 0 mm 3 mps 751 mmHg 77%
    01:00 -7°C° 0.1 mm 4 mps 751 mmHg 81%
    02:00 -8°C° 0.1 mm 4 mps 751 mmHg 86%
    03:00 -8°C° 0.1 mm 5 mps 751 mmHg 90%
    04:00 -8°C° 0.4 mm 5 mps 750 mmHg 91%
    05:00 -8°C° 0.4 mm 5 mps 750 mmHg 92%
    06:00 -8°C° 0.4 mm 5 mps 750 mmHg 94%
    07:00 -8°C° 0.4 mm 5 mps 750 mmHg 94%
    08:00 -8°C° 0.4 mm 5 mps 750 mmHg 94%
    09:00 -8°C° 0.4 mm 5 mps 750 mmHg 94%
    10:00 -7°C° 0.4 mm 5 mps 749 mmHg 94%
    11:00 -6°C° 0.4 mm 5 mps 749 mmHg 94%
    12:00 -6°C° 0.4 mm 5 mps 749 mmHg 94%
    13:00 -5°C° 0.1 mm 5 mps 749 mmHg 95%
    14:00 -3°C° 0.1 mm 4 mps 748 mmHg 95%
    15:00 -3°C° 0.1 mm 4 mps 748 mmHg 95%
    16:00 -2°C° 0.3 mm 4 mps 748 mmHg 96%
    17:00 -2°C° 0.3 mm 4 mps 748 mmHg 97%
    18:00 -2°C° 0.3 mm 4 mps 748 mmHg 97%
    19:00 -2°C° 0.3 mm 4 mps 748 mmHg 97%
    20:00 -2°C° 0.3 mm 4 mps 748 mmHg 97%
    21:00 -2°C° 0.3 mm 4 mps 748 mmHg 97%
    22:00 -2°C° 0.1 mm 4 mps 748 mmHg 97%
    23:00 -2°C° 0.1 mm 4 mps 748 mmHg 97%

    29 January, Wednesday

    Time Temperature Precipitation Wind Pressure Humidity
    00:00 -2°C° 0.1 mm 4 mps 748 mmHg 97%
    01:00 -2°C° 0.1 mm 4 mps 748 mmHg 96%
    02:00 -2°C° 0.1 mm 4 mps 748 mmHg 96%
    03:00 -2°C° 0.1 mm 4 mps 748 mmHg 95%
    04:00 -1°C° 0 mm 3 mps 747 mmHg 95%
    05:00 -1°C° 0 mm 3 mps 747 mmHg 95%
    06:00 -1°C° 0 mm 3 mps 747 mmHg 96%
    07:00 -1°C° 0 mm 3 mps 747 mmHg 96%
    08:00 -1°C° 0 mm 3 mps 747 mmHg 97%
    09:00 -1°C° 0 mm 3 mps 747 mmHg 97%
    10:00 -1°C° 0 mm 3 mps 747 mmHg 98%
    11:00 -1°C° 0 mm 4 mps 747 mmHg 99%
    12:00 -1°C° 0 mm 4 mps 747 mmHg 99%
    13:00 -1°C° 0.1 mm 4 mps 746 mmHg 99%
    14:00 -1°C° 0.1 mm 4 mps 746 mmHg 99%
    15:00 -1°C° 0.1 mm 5 mps 746 mmHg 98%
    16:00 -1°C° 0.2 mm 5 mps 745 mmHg 98%
    17:00 -2°C° 0.2 mm 5 mps 745 mmHg 97%
    18:00 -2°C° 0.2 mm 5 mps 745 mmHg 97%
    19:00 -3°C° 0.5 mm 6 mps 744 mmHg 97%
    20:00 -4°C° 0.5 mm 6 mps 744 mmHg 96%
    21:00 -4°C° 0.5 mm 6 mps 744 mmHg 96%
    22:00 -4°C° 0.3 mm 6 mps 743 mmHg 96%
    23:00 -5°C° 0.3 mm 6 mps 743 mmHg 96%

    30 January, Thursday

    Time Temperature Precipitation Wind Pressure Humidity
    00:00 -5°C° 0.3 mm 6 mps 742 mmHg 95%
    01:00 -5°C° 0.4 mm 6 mps 742 mmHg 96%
    02:00 -5°C° 0.4 mm 6 mps 741 mmHg 96%
    03:00 -5°C° 0.4 mm 6 mps 741 mmHg 96%
    04:00 -4°C° 0.2 mm 5 mps 740 mmHg 97%
    05:00 -2°C° 0.2 mm 5 mps 739 mmHg 97%
    06:00 -1°C° 0.2 mm 5 mps 739 mmHg 98%
    07:00 -1°C° 0.6 mm 5 mps 738 mmHg 98%
    08:00 -1°C° 0.6 mm 6 mps 738 mmHg 98%
    09:00 -1°C° 0.6 mm 6 mps 738 mmHg 98%
    10:00 -1°C° 0.2 mm 6 mps 738 mmHg 97%
    11:00 -2°C° 0.2 mm 6 mps 738 mmHg 95%
    12:00 -2°C° 0.2 mm 6 mps 738 mmHg 93%
    13:00 -2°C° 0 mm 6 mps 738 mmHg 90%
    14:00 -2°C° 0 mm 6 mps 739 mmHg 87%
    15:00 -2°C° 0 mm 6 mps 739 mmHg 84%
    16:00 -3°C° 0 mm 6 mps 739 mmHg 84%
    17:00 -4°C° 0 mm 5 mps 740 mmHg 85%
    18:00 -4°C° 0 mm 5 mps 740 mmHg 86%
    19:00 -4°C° 0 mm 5 mps 741 mmHg 86%
    20:00 -4°C° 0 mm 5 mps 741 mmHg 85%
    21:00 -4°C° 0 mm 5 mps 741 mmHg 85%
    22:00 -4°C° 0 mm 5 mps 741 mmHg 87%
    23:00 -4°C° 0 mm 5 mps 741 mmHg 89%

    31 January, Friday

    Time Temperature Precipitation Wind Pressure Humidity
    00:00 -5°C° 0 mm 5 mps 741 mmHg 91%
    01:00 -4°C° 0 mm 4 mps 741 mmHg 92%
    02:00 -5°C° 0 mm 4 mps 741 mmHg 93%
    03:00 -5°C° 0 mm 4 mps 741 mmHg 94%
    04:00 -5°C° 0 mm 4 mps 741 mmHg 93%
    05:00 -5°C° 0 mm 4 mps 741 mmHg 93%
    06:00 -5°C° 0 mm 4 mps 740 mmHg 93%
    07:00 -5°C° 0 mm 4 mps 740 mmHg 92%
    08:00 -5°C° 0 mm 4 mps 740 mmHg 92%
    09:00 -5°C° 0 mm 4 mps 740 mmHg 91%
    10:00 -4°C° 0 mm 4 mps 740 mmHg 90%
    11:00 -3°C° 0 mm 4 mps 740 mmHg 90%
    12:00 -3°C° 0 mm 4 mps 740 mmHg 89%
    13:00 -3°C° 0.2 mm 4 mps 739 mmHg 91%
    14:00 -3°C° 0.2 mm 4 mps 739 mmHg 93%
    15:00 -3°C° 0.2 mm 4 mps 739 mmHg 95%
    16:00 -2°C° 0.4 mm 3 mps 739 mmHg 96%
    17:00 -2°C° 0.4 mm 3 mps 739 mmHg 97%
    18:00 -2°C° 0.4 mm 3 mps 739 mmHg 97%
    19:00 -2°C° 0.3 mm 3 mps 739 mmHg 97%
    20:00 -2°C° 0.3 mm 2 mps 739 mmHg 98%
    21:00 -2°C° 0.3 mm 2 mps 740 mmHg 98%
    22:00 -2°C° 0.2 mm 2 mps 740 mmHg 98%
    23:00 -2°C° 0.2 mm 2 mps 740 mmHg 98%
    Show more